THORAD AGENA D DEB

Satellite information

Favourite Embed

Satellite Type and Status

DEBRISIN ORBIT

Key statistics

Satellite THORAD AGENA D DEB at a glance.

Uptime

20338

Days in orbit

Revolutions

≈ 14.1

Per day

Orbit

SSO

Sun Synchronous Orbit

Inclination

100.0

Latest

Satellite identification and parameters

Extended collection of information and parameters for THORAD AGENA D DEB.

Object identification

Identified? True

Debris? True

Object name: THORAD AGENA D DEB

International designator: 1970-025KX

Object number (NORAD): 5392

Object ID (CCSDS): 5392

Country: UNITED STATES OF AMERICA (US)

Current information (Y/N): Y

RCS size: SMALL

Orbital parameters

Period: 102.077 minutes

Inclination: 100.0223 deg

SMA: 7235.109 km

Apoapsis: 890.442 km

Periapsis: 823.506 km

RAAN: 272.0182 deg

Eccentricy: 0.00462578

Argument of periapsis: 59.1211 deg

Mean anomaly: 301.4493 deg

Mean motion: 14.10701593 rev/day

Mean motion (dot): 0.00003137 rev/day2

B* drag term: 0.0017670031 1/REarth

Two-line elements (TLE)

Creation date: Dec. 12, 2025, 3:16 a.m.

Reference frame: TEME

Reference center: EARTH

Epoch: Dec. 11, 2025, 5:31 p.m. UTC

TLE line 0: 0 THORAD AGENA D DEB

TLE line 1: 1 05392U 70025KX 25345.73044493 .00003137 00000-0 17670-2 0 9993

TLE line 2: 2 05392 100.0223 272.0182 0046258 59.1211 301.4493 14.10701593818085

Live tracking on map

Real-time ground track for satellite THORAD AGENA D DEB.

In-orbit conjunctions

A list of the most updated potential collisions computed for object THORAD AGENA D DEB.

Target Orbit TCA Probability of collision Miss distance Type
SL-16 R/B LEO 2025-10-04 21:45:50 0.00122256 101.0 (m) ROCKET BODY
FENGYUN 1C DEB SSO 2025-06-05 03:16:16 0.0001078816 264.0 (m) DEBRIS
COSMOS 2297 LEO 2025-01-13 11:01:10 0.0001003282 788.0 (m) PAYLOAD
CZ-6A DEB LEO 2024-12-09 17:12:07 0.0001509436 799.0 (m) DEBRIS
FENGYUN 1C DEB SSO 2024-11-11 05:38:15 0.0002471486 320.0 (m) DEBRIS

Associated space launch

Meteorological research and development satellite

THORAD AGENA D DEB was lifted into orbit during the mission ‘Thorad SLV-2G Agena D | Nimbus 4’, on board a Thorad SLV-2G Agena D space rocket.

The launch took place on April 8, 1970, 8:17 a.m. from Space Launch Complex 2E.

For more information about the launch, click the button.

Launch to space Thorad SLV-2G Agena D | Nimbus 4
Thorad SLV-2G Agena D | Nimbus 4

Agency: N/A

Status: Launch Successful

Launch date: April 8, 1970, 8:17 a.m. UTC

Rocket: Thorad SLV-2G Agena D

Launch pad: Space Launch Complex 2E

Location: Vandenberg SFB, CA, USA

...

Latest news about this satellite

There are no fresh news available about this satellite. Check back as we update our databases every day.


Newsletter sign-up

Weekly statistics, charts and insights to help you stay on top of the space industry.